Torna al catalogo

BREEZE-M DEB

TANK

AttivoHEO
NORAD 39287·DEBRIS·🇷🇺 Russia

Lanciato Sep 29, 2013 da Baikonur Cosmodrome

Loading…

Prossimi Passaggi (prossime 24 ore)

TLE

AggiornatoSource: Space-Track

Epoca: Sep 14, 2026, 09:52 UTC

1 39287U 13056C   26257.41165662  .00001841  00000-0  41712-3 0  9999
2 39287  49.5176 266.1667 5161921 246.6623  52.1267  5.33243695247029

Traccia BREEZE-M DEB in tempo reale con AllMySat

Download on the App Store